This demonstration page uses our WeatherBlox Daily Observations layout. Learn more.

Left ArrowRight Arrow

Hourly Observations for August 14, 2016

Temp ( °F °C ) Dew Point ( °F °C ) Humidity (%) Winds ( mph kmh ) Pressure ( in mb ) Visibility ( mi km ) Precip ( " mm )
12:14 am 00:14 Cloudy 73 23 72 22 94 94 W 5 7 29.97 1015 7 11.26538 N/A
12:35 am 00:35 Cloudy 72 22 72 22 100 100 WSW 6 9 29.97 1015 7 11.26538 N/A
12:54 am 00:54 Cloudy 72 22 72 22 100 100 W 7 11 29.97 1015 5 8.0467 N/A
1:14 am 01:14 Cloudy 72 22 72 22 100 100 W 8 13 29.97 1015 7 11.26538 N/A
1:35 am 01:35 Mostly Cloudy 72 22 70 21 94 94 WSW 5 7 29.97 1015 7 11.26538 N/A
1:54 am 01:54 Partly Cloudy 72 22 70 21 94 94 WSW 5 7 29.97 1015 7 11.26538 N/A
2:14 am 02:14 Cloudy 72 22 70 21 94 94 SW 5 7 29.97 1015 5 8.0467 N/A
2:35 am 02:35 Cloudy 72 22 72 22 100 100 SSW 5 7 29.97 1015 5 8.0467 N/A
2:54 am 02:54 Mostly Cloudy 72 22 70 21 94 94 WSW 3 6 29.97 1015 5 8.0467 N/A
3:14 am 03:14 Cloudy 72 22 70 21 94 94 WSW 3 6 29.97 1015 5 8.0467 N/A
3:35 am 03:35 Mostly Cloudy 72 22 70 21 94 94 W 3 6 29.97 1015 5 8.0467 N/A
3:54 am 03:54 Partly Cloudy 72 22 70 21 94 94 W 3 6 29.97 1015 5 8.0467 N/A
4:14 am 04:14 Partly Cloudy 72 22 70 21 94 94 Calm 29.97 1015 4 6.43736 N/A
4:35 am 04:35 Mostly Cloudy 72 22 70 21 94 94 Calm 29.97 1015 4 6.43736 N/A
4:54 am 04:54 Mostly Cloudy 72 22 70 21 94 94 Calm 29.97 1015 4 6.43736 N/A
5:14 am 05:14 Cloudy 72 22 70 21 94 94 Calm 29.97 1015 3 4.82802 N/A
5:35 am 05:35 Cloudy 72 22 72 22 100 100 SW 5 7 30 1016 3 4.82802 N/A
5:54 am 05:54 Cloudy 72 22 70 21 94 94 Calm 29.97 1015 2.5 4.02335 N/A
6:14 am 06:14 Cloudy 72 22 70 21 94 94 Calm 29.97 1015 3 4.82802 N/A
6:35 am 06:35 Cloudy 70 21 70 21 100 100 Calm 29.97 1015 3 4.82802 N/A
6:54 am 06:54 Mostly Cloudy 70 21 70 21 100 100 S 5 7 30 1016 4 6.43736 N/A
7:14 am 07:14 Cloudy 70 21 68 20 94 94 S 3 6 30 1016 10 16.0934 N/A
7:34 am 07:34 Cloudy 70 21 68 20 94 94 SSE 6 9 30 1016 5 8.0467 N/A
7:54 am 07:54 Cloudy 70 21 68 20 94 94 S 6 9 30 1016 7 11.26538 N/A
8:15 am 08:15 Cloudy 70 21 68 20 94 94 SW 6 9 30.06 1018 5 8.0467 N/A
8:34 am 08:34 Cloudy 68 20 68 20 100 100 SSW 5 7 30.06 1018 1.75 2.816345 N/A
8:54 am 08:54 Cloudy 68 20 66 19 94 94 SW 6 9 30.06 1018 4 6.43736 N/A
9:15 am 09:15 Cloudy 66 19 66 19 100 100 Calm 30.06 1018 0.75 1.207005 N/A
9:34 am 09:34 Cloudy 68 20 66 19 94 94 SSW 7 11 30.09 1019 3 4.82802 N/A
9:54 am 09:54 Cloudy 68 20 66 19 94 94 Calm 30.06 1018 2 3.21868 N/A
10:15 am 10:15 Cloudy 68 20 68 20 100 100 S 7 11 30.09 1019 5 8.0467 N/A
10:34 am 10:34 Cloudy 68 20 68 20 100 100 SSE 6 9 30.09 1019 5 8.0467 N/A
10:54 am 10:54 Cloudy 68 20 68 20 100 100 Calm 30.09 1019 5 8.0467 N/A
11:15 am 11:15 Cloudy 68 20 68 20 100 100 S 6 9 30.09 1019 7 11.26538 N/A
11:34 am 11:34 Cloudy 68 20 68 20 100 100 S 6 9 30.09 1019 5 8.0467 N/A
11:54 am 11:54 Cloudy 70 21 68 20 94 94 SSW 7 11 30.09 1019 7 11.26538 N/A
12:14 pm 12:14 Cloudy 70 21 68 20 94 94 SSW 6 9 30.09 1019 10 16.0934 N/A
12:34 pm 12:34 Cloudy 70 21 68 20 94 94 S 7 11 30.09 1019 7 11.26538 N/A
12:54 pm 12:54 Cloudy 70 21 68 20 94 94 SSW 5 7 30.09 1019 10 16.0934 N/A
1:14 pm 13:14 Cloudy 70 21 68 20 94 94 SSW 5 7 30.09 1019 10 16.0934 N/A
1:34 pm 13:34 Cloudy 70 21 68 20 94 94 S 5 7 30.09 1019 10 16.0934 N/A
1:55 pm 13:55 Cloudy 70 21 68 20 94 94 SW 3 6 30.09 1019 10 16.0934 N/A
2:14 pm 14:14 Cloudy 70 21 68 20 94 94 SSW 6 9 30.09 1019 10 16.0934 N/A
2:34 pm 14:34 Cloudy 70 21 68 20 94 94 SSE 5 7 30.09 1019 10 16.0934 N/A
2:55 pm 14:55 Mostly Cloudy 70 21 68 20 94 94 Calm 30.09 1019 10 16.0934 N/A
3:14 pm 15:14 Cloudy 72 22 68 20 88 88 Calm 30.06 1018 10 16.0934 N/A
3:34 pm 15:34 Cloudy 72 22 68 20 88 88 WSW 3 6 30.06 1018 10 16.0934 N/A
3:55 pm 15:55 Cloudy 72 22 68 20 88 88 WSW 5 7 30.06 1018 10 16.0934 N/A
4:14 pm 16:14 Cloudy 72 22 68 20 88 88 SW 5 7 30.06 1018 10 16.0934 N/A
4:34 pm 16:34 Partly Cloudy 73 23 68 20 83 83 WSW 6 9 30.06 1018 10 16.0934 N/A
4:55 pm 16:55 Partly Cloudy 73 23 68 20 83 83 WSW 3 6 30.06 1018 10 16.0934 N/A
5:14 pm 17:14 Partly Cloudy 73 23 68 20 83 83 W 5 7 30.06 1018 10 16.0934 N/A
5:34 pm 17:34 Partly Cloudy 75 24 70 21 83 83 Calm 30.06 1018 10 16.0934 N/A
5:54 pm 17:54 Partly Cloudy 75 24 68 20 78 78 Calm 30.06 1018 10 16.0934 N/A
6:14 pm 18:14 Partly Cloudy 75 24 68 20 78 78 Calm 30.06 1018 10 16.0934 N/A
6:35 pm 18:35 Mostly Cloudy 75 24 68 20 78 78 Calm 30.06 1018 10 16.0934 N/A
6:54 pm 18:54 Partly Cloudy 73 23 68 20 83 83 Calm 30.06 1018 10 16.0934 N/A
7:14 pm 19:14 Sunny 73 23 70 21 89 89 NNW 3 6 30.06 1018 10 16.0934 N/A
7:35 pm 19:35 Sunny 73 23 70 21 89 89 NW 7 11 30.06 1018 10 16.0934 N/A
7:54 pm 19:54 Sunny 72 22 68 20 88 88 NW 3 6 30.06 1018 10 16.0934 N/A
8:14 pm 20:14 Sunny 72 22 68 20 88 88 Calm 30.06 1018 10 16.0934 N/A
8:35 pm 20:35 Sunny 72 22 68 20 88 88 Calm 30.06 1018 10 16.0934 N/A
8:54 pm 20:54 Clear 70 21 68 20 94 94 NNW 3 6 30.12 1020 10 16.0934 N/A
9:14 pm 21:14 Clear 70 21 68 20 94 94 Calm 30.12 1020 10 16.0934 N/A
9:35 pm 21:35 Clear 70 21 68 20 94 94 Calm 30.12 1020 10 16.0934 N/A
9:54 pm 21:54 Partly Cloudy 70 21 68 20 94 94 Calm 30.12 1020 10 16.0934 N/A
10:14 pm 22:14 Mostly Cloudy 70 21 68 20 94 94 Calm 30.12 1020 10 16.0934 N/A
10:34 pm 22:34 Mostly Cloudy 70 21 68 20 94 94 NNE 5 7 30.12 1020 10 16.0934 N/A
10:54 pm 22:54 Mostly Cloudy 70 21 68 20 94 94 Calm 30.12 1020 10 16.0934 N/A
11:14 pm 23:14 Cloudy 70 21 68 20 94 94 Calm 30.12 1020 10 16.0934 N/A
11:34 pm 23:34 Cloudy 70 21 68 20 94 94 Calm 30.12 1020 7 11.26538 N/A
11:54 pm 23:54 Mostly Cloudy 70 21 68 20 94 94 Calm 30.12 1020 10 16.0934 N/A

Powered by AerisWeather